KE0BZR Weather Reports


time (UTC)temp
F
wind
direction
speed
knots
gust
knots
rain 1hr
in
rain 24hr
in
rain mn
in
humidity
%
barometer
mb
20260505094629 41 360 7.8 17.4 0.00 0.13 0.01 92 1005.9
20260505093100 41 360 7.0 19.1 0.00 0.13 0.01 92 1005.8
20260505091605 41 360 7.8 16.5 0.01 0.13 0.01 92 1005.7
20260505090054 42 360 7.0 16.5 0.01 0.13 0.01 91 1005.3
20260505084554 42 360 7.8 14.8 0.01 0.13 0.01 91 1005.3
20260505083056 43 360 7.8 12.2 0.01 0.13 0.01 90 1005.4
20260505081547 47 360 2.6 10.4 0.00 0.12 0.00 92 1005.4
20260505080046 46 360 0.0 1.7 0.00 0.12 0.00 91 1005.2
20260505074538 47 360 0.0 0.0 0.00 0.12 0.00 90 1005.0
20260505073039 47 360 0.0 0.0 0.00 0.12 0.00 89 1005.2
20260505071545 47 360 0.0 2.6 0.00 0.12 0.00 89 1005.0
20260505070030 47 360 0.0 2.6 0.00 0.12 0.00 91 1005.0
20260505064533 47 360 0.0 0.0 0.00 0.12 0.00 91 1005.1
20260505063025 47 360 0.0 0.0 0.00 0.12 0.00 91 1005.0
20260505061528 46 360 0.0 0.0 0.00 0.12 0.00 91 1005.0
20260505060033 46 360 0.0 0.0 0.00 0.12 0.00 90 1004.9
20260505054522 46 360 0.0 0.0 0.00 0.12 0.12 90 1005.0
20260505053026 47 360 0.0 1.7 0.00 0.12 0.12 90 1004.7
20260505051521 47 360 0.0 0.0 0.00 0.12 0.12 90 1004.6
20260505041518 47 360 0.9 4.3 0.08 0.12 0.12 89 1004.9
20260505040017 47 360 1.7 5.2 0.11 0.12 0.12 88 1005.0
20260505034517 47 360 1.7 5.2 0.10 0.10 0.10 88 1004.9
20260505033019 47 360 3.5 7.8 0.07 0.07 0.07 86 1005.2
20260505031513 48 360 5.2 11.3 0.04 0.04 0.04 83 1004.7
20260505030008 50 360 4.3 8.7 0.01 0.01 0.01 77 1004.2
20260505024505 51 360 2.6 8.7 0.00 0.00 0.00 70 1003.6
20260505023002 52 360 4.3 9.6 0.00 0.00 0.00 69 1003.4
20260505021502 52 360 5.2 12.2 0.00 0.00 0.00 66 1003.1
20260505020104 53 360 5.2 12.2 0.00 0.00 0.00 63 1002.9
20260505014605 56 360 0.0 2.6 0.00 0.00 0.00 54 1002.9
20260505013055 56 360 0.0 0.0 0.00 0.00 0.00 53 1002.3
20260505011557 56 360 0.0 0.0 0.00 0.00 0.00 53 1002.5
20260505010056 56 360 0.9 3.5 0.00 0.00 0.00 54 1002.4
20260505004557 56 360 1.7 7.0 0.00 0.00 0.00 56 1002.5
20260505003053 58 360 9.6 14.8 0.00 0.00 0.00 47 1002.6
20260505001551 59 360 0.0 7.0 0.00 0.00 0.00 45 1002.4
20260505000056 59 360 3.5 8.7 0.00 0.00 0.00 44 1001.9
20260504234549 60 360 6.1 12.2 0.00 0.00 0.00 43 1001.6
20260504233049 60 360 3.5 11.3 0.00 0.00 0.00 44 1001.4
20260504231549 60 360 4.3 12.2 0.00 0.00 0.00 42 1001.2
20260504230051 60 360 9.6 15.6 0.00 0.00 0.00 42 1001.2
20260504224548 60 360 7.8 14.8 0.00 0.00 0.00 41 1001.1
20260504223046 60 360 7.0 13.9 0.00 0.00 0.00 41 1001.2
20260504221546 60 360 7.0 12.2 0.00 0.00 0.00 41 1001.0
20260504220046 61 360 9.6 17.4 0.00 0.00 0.00 39 1000.7
20260504214553 62 360 7.8 16.5 0.00 0.00 0.00 36 1000.1
20260504213044 65 360 10.4 23.5 0.00 0.00 0.00 32 999.9
20260504211543 67 360 2.6 5.2 0.00 0.00 0.00 27 999.6
20260504210055 66 360 0.0 5.2 0.00 0.00 0.00 30 999.7
20260504204557 64 360 2.6 5.2 0.00 0.00 0.00 31 1000.0
20260504203044 63 360 0.0 0.0 0.00 0.00 0.00 33 1000.5
20260504201541 62 360 3.5 11.3 0.00 0.00 0.00 35 1001.2
20260504200042 61 360 3.5 12.2 0.00 0.00 0.00 37 1001.1
20260504194541 60 360 5.2 11.3 0.00 0.00 0.00 43 1001.0
20260504193040 62 360 3.5 11.3 0.00 0.00 0.00 37 1001.5
20260504191538 64 360 8.7 19.1 0.00 0.00 0.00 29 1001.0
20260504190037 67 360 2.6 9.6 0.00 0.00 0.00 22 1000.0
20260504184537 68 360 1.7 10.4 0.00 0.00 0.00 23 999.6
20260504183036 69 360 0.0 0.0 0.00 0.00 0.00 21 999.8
20260504181535 68 360 2.6 9.6 0.00 0.00 0.00 20 999.9
20260504180033 68 360 2.6 12.2 0.00 0.00 0.00 23 1000.1
20260504174533 69 360 7.0 11.3 0.00 0.00 0.00 23 1000.3
20260504173029 70 360 5.2 12.2 0.00 0.00 0.00 23 1000.5
20260504171526 70 360 4.3 11.3 0.00 0.00 0.00 23 1000.7